STARLINK-5078, 54857

Orbit data source: Space-Track

STARLINK-5078, 54857 is a payload satellite owned by SpaceX/Seattle (US) in LEO that was launched on Wed, 28 Dec 2022 UTC via an FALCON 9 launch vehicle from the Air Force Eastern Test Range (AFETR). Payload-class satellites include a variety of spacecraft equipped with specific instruments for various scientific and technological missions. These include communications satellites like Starlink; space stations such as the ISS; scientific satellites like the Hubble; Earth observation satellites from companies like Planet Labs, Umbra, and HawkEye 360; GPS; miniature CubeSats for education and research; and military/defense satellites.

Loading next visibility...
Identifier
54857, 2022-177AP
Orbit
LEO
Country
Flag of USUS
Related business
Manufacturer
SpaceX/Seattle
Mission
Operational Commercial Communications
Bus & Motor
STARLINK, Unknown motor
Mass
305 kg wet, ~290 kg dry
Launch date (UTC)
2022-12-28 (3 years ago)
Launch vehicle
FALCON 9
Launch site
Air Force Eastern Test Range (AFETR)
Object type
Payload
Rocket body
Debris
Shape & HBR
Box + 1 Pan, 10.1 m
Radar Cross Section
13.562 m², Large (>1 m²)

Expand to show TLE details & history
Last TLE update: 3 days ago

TLE from 3 days ago
0 STARLINK-5078
1 54857U 22177AP  26170.70622087  .00003721  00000-0  14463-3 0  9990
2 54857  43.0024 265.3698 0000770 277.5398  82.5367 15.27589802192693
Epoch: 2026-06-19T16:56Z
TLE epoch observation values (Epoch: 2026-06-19T16:56:57.483Z)
Latitude
0.00005°
Longitude
103.19899°
Altitude
482.727 km
Speed
7.626 km/s
True Right ascension
17h 41m 28s
True Declination
0° 00' 00"
Sunlit
Object was in full shadow at epoch
Visualization orbit readout
Latitude
Unknown
Longitude
Unknown
Altitude
Unknown
Speed
Unknown
Apparent Right ascension
Unknown
Apparent Declination
Unknown
Sunlit
N/A
Visualization observer readout
Local Sidereal Time
21:35:42
Azimuth
Unknown
Elevation
Unknown
Doppler factor
Unknown
Orbital elements
Apogee altitude
485.493 km
Perigee altitude
484.436 km
Semi-major axis
6,863.102 km
Eccentricity
0.00008
Inclination
43.0024°
RAAN
265.3698°
Arg. of periapsis
277.5398°
True anomaly
82.54545°
Mean anomaly
82.5367°
Eccentric anomaly
82.54107°
Mean motion
3.81735 °/min
Orbital period
94.31 mins
BSTAR
0.00014463
Loading maneuver chart data...
Computing Atmospheric mass density...
Loading historical data...
Loading historical data...
Loading historical data...
Loading historical data...
Loading historical data...
Loading historical data...
Loading historical data...

Documentation

Showing up to 5 results
|